Regional Weather Roundup
Issued by NWS Cleveland, OH

Home | Current Version | Previous Version | Text Only | Print | Product List | Glossary Off
Versions: 1 2 3 4 5 6 7 8 9 10 11 12 13 14 15 16 17 18 19 20 21 22 23 24 25 26 27 28 29 30 31 32 33 34 35 36 37 38 39 40 41 42 43 44 45 46 47 48 49 50

000
ASUS41 KCLE 020900
RWRCLE
OHIO REGIONAL WEATHER ROUNDUP
NATIONAL WEATHER SERVICE WILMINGTON, OH
500 AM EDT MON MAY 02 2016

NOTE: "FAIR" INDICATES FEW OR NO CLOUDS BELOW 12,000 FEET WITH NO
SIGNIFICANT WEATHER AND/OR OBSTRUCTIONS TO VISIBILITY.

OHZ001>008-015>018-024>027-034-035-043-044-021000-
   NORTHWEST OHIO

CITY           SKY/WX    TMP DP  RH WIND       PRES   REMARKS
DEFIANCE       CLOUDY    48  45  89 NE7       29.92F
FINDLAY        CLOUDY    50  45  83 NE8       29.90R
TOLEDO EXPRESS CLOUDY    48  47  96 NE8       29.93F
TOLEDO EXEC    CLOUDY    49  46  90 NE5       29.94R
LIMA           FAIR      49  48  97 NE7       29.88F
$$

OHZ009>014-019>023-028>033-038-089-021000-
   NORTHEAST OHIO

CITY           SKY/WX    TMP DP  RH WIND       PRES   REMARKS
CLE-HOPKINS    LGT RAIN  47  45  93 N5        29.96R
CLE-LAKEFRONT  LGT RAIN  46  44  93 NE16      29.93F FOG
CUY CO. ARPT   NOT AVBL
LORAIN-ELYRIA  CLOUDY    46  43  89 E16       29.89F
ASHTABULA      RAIN      45  45 100 VRB3      29.89R
AKRON-CANTON   CLOUDY    52  49  89 CALM      29.88S
WOOSTER        CLOUDY    51  49  92 NW18      29.92R
MANSFIELD      CLOUDY    49  48  97 N8        29.89F
YOUNGSTOWN     LGT RAIN  48  47  96 W12       29.87R FOG
$$

OHZ042-051>053-060>062-070>072-077>081-021000-
  SOUTHWEST OHIO

CITY           SKY/WX    TMP DP  RH WIND       PRES   REMARKS
CINC-COVINGTON FAIR      59  58  96 W8        29.91R
CINC-LUNKEN    FAIR      58  58 100 W6        29.91R
HAMILTON       CLOUDY    61  59  93 W5        29.91S
DAYTON         NOT AVBL
WRIGHT-PAT AFB NOT AVBL
DAYTON GENERAL CLOUDY    60  56  86 W6        29.89R
WILMINGTON     CLOUDY    58  58 100 W6        29.89R FOG
$$

OHZ036-037-039>041-045>050-054>059-063>069-073>076-082>088-021000-
  CENTRAL AND SOUTHEAST OHIO

CITY           SKY/WX    TMP DP  RH WIND       PRES   REMARKS
COLUMBUS       CLOUDY    57  57 100 CALM      29.87S
OSU AIRPORT    CLOUDY    57  55  93 NW12      29.89R
BOLTON FIELD   NOT AVBL
RICKENBACK AFB NOT AVBL
NEWARK         FAIR      58  55  90 W3        29.87S
MARION         MOCLDY    50  47  89 NE9       29.89F
LANCASTER      FAIR      58  56  93 S3        29.88F FOG
ZANESVILLE     MOCLDY    60  57  89 S3        29.89R FOG
NEW PHILLY     LGT RAIN  55  54  96 N3        29.87F
$$




USA.gov is the U.S. government's official web portal to all federal, state and local government web resources and services.